Wind_Speed
26 25 27 24 23 23 21 18 19 17 22 25 27 32 28 25 33 31 30 30 30 27 28 29 30 31 31 31 28 25 24 25 25 25 25 24 22 21 22 24 25 28 31 36
25 30 23 26 24 22 23 23 21 21 24 23 27 36 34 30 24 22 24 29 31 31 31 31 31 31 31 30 28 26 25 25 25 25 24 24 22 20 22 23 24 27 30 35
27 22 29 28 25 24 24 24 18 22 25 27 29 32 16 21 23 15 18 24 24 33 35 34 32 31 32 31 27 26 26 27 25 25 24 23 21 19 21 22 24 26 29 34
26 32 27 21 24 24 22 24 23 24 20 9 13 13 16 20 18 18 14 16 17 25 28 30 33 31 30 30 28 26 27 27 25 25 24 22 20 19 20 22 23 25 28 32
24 23 29 30 27 21 23 20 19 18 16 19 12 9 13 21 9 5 6 9 11 18 22 24 26 28 28 26 26 26 28 27 25 25 23 22 19 18 19 21 22 23 27 30
32 26 22 28 28 25 23 17 13 13 12 6 12 8 10 5 6 7 11 9 11 12 12 17 19 19 21 22 23 25 26 25 24 24 23 22 19 18 18 19 20 22 25 29
33 31 29 24 22 22 22 12 2 2 4 5 9 8 23 17 6 5 14 12 12 12 11 12 13 14 14 17 17 19 22 22 23 24 24 22 20 18 17 18 19 21 24 27
24 13 32 28 29 20 22 19 7 5 4 0 5 9 6 15 20 24 18 17 15 15 15 12 13 12 14 16 15 16 18 20 23 24 24 22 20 18 17 17 18 20 22 26
16 19 19 32 30 27 20 21 24 10 12 3 11 18 31 22 22 12 10 9 14 11 8 8 10 12 11 13 13 15 17 20 23 25 24 23 21 19 16 17 17 18 21 24
22 8 19 25 26 28 24 21 10 10 4 7 7 8 15 7 4 6 6 8 12 9 10 10 11 11 13 13 13 15 17 18 22 24 25 23 22 20 17 16 17 17 19 23
31 21 14 19 24 30 31 28 18 13 9 4 4 6 8 15 11 7 8 6 9 9 9 8 12 13 14 16 17 16 17 19 20 22 24 23 23 21 18 16 17 17 19 22
46 20 18 20 20 27 30 32 35 17 9 11 8 15 10 11 10 8 10 6 9 16 14 14 18 18 18 19 20 21 20 19 21 23 25 25 24 22 19 17 16 17 18 20
35 22 11 10 18 26 30 36 36 39 32 20 8 6 8 18 25 17 12 13 15 16 20 23 25 25 24 23 24 26 26 22 23 25 26 25 24 23 20 17 15 18 17 19
16 27 24 19 8 9 28 40 38 41 24 24 39 30 23 21 18 20 22 23 23 22 23 25 27 29 30 30 28 29 30 27 25 26 28 25 25 24 21 18 15 19 17 18
25 25 30 30 22 18 18 17 22 44 46 32 32 33 29 31 28 33 38 30 29 27 30 32 32 33 33 35 35 33 33 29 26 27 27 27 26 25 22 18 16 20 17 18
33 29 28 30 28 30 39 40 37 37 35 39 40 53 39 36 30 28 28 35 38 38 34 33 35 36 35 33 32 31 33 29 27 26 26 28 27 26 22 18 18 20 17 17
33 31 21 19 23 25 35 41 46 49 49 48 53 58 48 48 45 43 39 35 37 36 39 37 33 31 27 25 28 31 33 29 28 27 28 29 27 26 24 19 19 21 16 16
32 33 29 10 10 8 17 17 19 27 25 29 31 34 31 30 23 21 25 34 38 40 39 42 42 38 35 32 33 34 32 30 30 31 29 28 27 26 24 21 20 21 16 15
27 28 12 10 15 23 28 26 24 26 28 28 31 32 24 26 27 27 28 33 24 20 17 16 17 19 20 22 22 25 26 28 30 30 28 26 26 26 24 23 20 21 16 14
33 32 33 13 7 8 11 9 10 11 23 5 11 10 14 20 21 9 11 8 6 7 9 11 10 10 10 11 13 14 14 15 15 19 22 23 27 26 27 24 21 21 16 14
36 38 40 33 14 22 31 18 13 12 13 16 13 10 10 10 5 8 10 9 10 11 12 9 9 10 10 11 11 11 11 11 13 16 20 24 29 31 30 26 22 22 17 14
30 26 25 29 15 23 31 22 27 27 18 9 7 5 8 8 9 9 14 14 12 11 15 15 15 15 16 17 18 20 19 18 17 20 22 26 30 32 28 24 23 22 18 14
29 37 33 34 39 37 24 16 8 9 13 12 14 18 20 19 19 18 22 21 22 21 19 21 21 21 23 24 25 26 25 23 19 21 24 23 29 29 28 25 25 22 18 15
31 32 41 35 44 41 38 35 31 19 17 17 19 17 21 26 26 27 29 31 32 29 30 31 27 26 27 29 30 32 27 26 22 20 22 23 21 26 28 26 27 23 19 17
30 31 41 44 44 34 29 32 39 33 26 26 30 32 28 28 29 35 34 35 37 37 38 32 28 29 30 28 26 24 23 24 24 21 21 25 23 23 28 27 28 23 22 18
34 35 34 37 36 35 34 33 31 26 26 29 29 29 32 32 34 34 31 30 32 33 31 32 35 29 29 29 28 26 27 26 25 21 19 22 23 25 28 30 30 25 23 19
Wind_Direction
225 226 231 242 243 238 249 252 269 273 280 285 287 287 289 288 286 283 277 273 273 272 268 264 262 263 264 265 268 272 274 279 282 285 288 292 296 302 311 319 326 332 336 340
222 231 235 238 245 247 251 259 266 273 284 287 290 288 294 294 293 287 287 268 264 263 261 261 261 264 267 269 269 270 273 276 278 281 285 288 293 300 311 318 326 332 337 340
228 237 242 243 245 248 252 257 263 269 287 294 296 301 300 304 304 295 290 275 261 259 258 259 260 264 266 268 270 269 269 272 277 279 282 286 289 299 308 316 324 332 337 340
234 238 239 244 244 245 253 256 263 270 282 280 292 293 289 307 298 299 259 278 272 262 264 259 259 263 268 270 267 267 268 272 275 277 280 283 286 295 305 314 324 331 335 341
228 237 237 240 242 241 245 259 259 263 272 292 279 272 297 308 313 311 323 298 283 273 265 260 259 261 263 263 262 264 265 269 274 276 277 279 280 290 303 312 321 329 335 340
229 238 235 233 240 242 246 249 253 262 266 259 263 228 290 286 316 270 303 280 298 291 275 262 267 267 268 270 270 269 272 272 272 273 274 275 275 285 298 308 318 326 333 339
225 234 236 232 231 232 228 223 280 263 184 235 251 237 259 279 246 298 304 270 278 275 281 272 265 268 269 276 275 275 274 273 269 269 271 272 271 279 294 304 315 323 331 338
213 231 233 232 227 229 224 208 210 248 215 89 265 240 267 290 281 289 292 268 278 260 274 265 265 269 274 279 278 277 274 271 268 269 269 269 266 273 289 300 310 319 328 336
208 223 235 230 225 220 213 213 230 256 275 275 246 270 280 285 273 265 278 249 257 256 260 264 276 277 281 286 287 285 278 274 270 269 268 266 262 267 281 295 304 316 326 334
229 220 225 223 221 218 218 219 208 209 234 247 206 247 247 254 251 273 233 311 240 248 260 278 285 284 285 289 294 298 289 281 272 270 267 265 260 262 274 288 300 313 322 332
224 227 233 220 217 221 217 214 210 214 214 250 277 232 259 263 266 245 262 305 223 237 245 287 293 282 282 292 299 304 299 285 279 276 268 263 257 257 267 283 295 308 319 330
213 224 229 232 229 227 220 226 222 218 214 221 246 238 237 270 247 259 280 283 268 254 251 276 294 301 300 299 292 296 299 290 277 274 269 262 257 255 262 277 291 303 314 327
212 219 219 241 245 229 226 228 228 231 240 239 221 249 237 245 251 269 249 287 287 270 264 267 278 284 289 293 290 288 290 286 279 272 270 264 257 253 257 271 286 298 308 323
219 218 219 234 253 224 226 235 234 232 227 240 236 250 244 245 255 239 277 291 276 272 272 269 271 273 279 284 286 283 283 284 276 272 267 265 257 251 252 265 287 291 302 317
215 221 229 232 244 252 254 248 242 239 243 234 259 262 266 264 262 261 264 258 269 278 283 281 277 274 273 275 280 276 277 279 274 271 268 263 257 249 248 259 286 286 295 312
217 228 234 241 244 255 264 262 258 259 261 262 262 261 264 273 273 266 256 258 273 281 274 276 276 276 274 271 268 265 265 271 267 266 267 259 255 248 246 254 278 281 289 306
213 219 227 251 252 263 267 262 259 258 258 259 259 270 278 277 273 269 271 269 268 268 274 274 273 280 281 269 266 260 257 259 260 260 261 257 254 246 242 252 268 275 282 299
224 227 230 237 216 235 253 260 262 264 262 261 268 273 280 280 275 264 261 269 267 270 273 277 281 281 271 267 270 262 259 256 260 258 256 256 253 246 237 247 260 271 276 291
232 231 213 212 215 261 258 256 258 265 277 275 274 280 271 269 271 272 273 273 281 281 283 287 285 277 269 260 259 263 263 263 265 260 259 258 252 243 233 241 252 264 269 284
227 233 224 207 230 236 263 275 268 260 266 303 312 281 252 255 256 255 254 253 263 296 300 303 298 287 274 258 250 250 251 254 261 265 261 257 249 233 232 233 244 257 262 274
204 216 217 222 232 255 251 236 246 225 259 272 275 299 259 219 224 245 224 242 277 299 309 305 274 262 249 246 250 256 267 278 265 257 250 255 244 231 230 226 235 250 254 266
204 194 212 223 227 255 263 248 236 268 274 249 237 259 184 260 264 253 254 266 274 284 296 294 280 275 275 273 272 280 289 288 287 267 261 257 242 235 232 222 232 243 247 256
212 221 214 214 222 245 260 253 220 240 243 232 250 241 241 253 267 271 255 252 263 273 286 286 275 270 275 279 286 287 287 292 283 268 263 267 250 236 224 217 230 238 241 250
230 233 231 237 248 254 257 260 262 257 243 244 233 230 263 269 254 252 257 263 264 267 275 286 272 265 271 281 284 274 284 283 283 279 273 259 254 236 221 213 229 234 238 245
237 236 234 236 245 245 248 252 256 254 244 251 248 260 268 259 254 253 260 256 260 266 278 275 278 281 281 281 282 280 266 273 281 280 271 250 244 235 217 211 228 230 234 240
222 225 225 237 246 251 251 252 247 247 257 264 260 262 269 264 261 268 264 260 259 265 267 274 280 280 276 280 280 276 266 272 281 281 274 247 242 236 217 213 223 228 233 238
Height
3099 3101 3100 3103 3105 3106 3106 3106 3106 3105 3104 3102 3100 3096 3097 3098 3092 3092 3092 3092 3092 3094 3093 3093 3092 3092 3093 3094 3095 3097 3096 3096 3095 3094 3093 3091 3090 3088 3085 3082 3077 3072 3067 3060
3096 3093 3099 3099 3100 3102 3102 3103 3103 3101 3100 3099 3095 3089 3090 3089 3086 3084 3082 3083 3085 3086 3085 3085 3086 3087 3088 3090 3091 3092 3092 3091 3090 3089 3088 3087 3086 3084 3082 3078 3074 3070 3064 3058
3090 3091 3092 3095 3096 3098 3098 3099 3101 3100 3097 3095 3091 3083 3082 3083 3080 3078 3077 3076 3076 3077 3077 3079 3080 3082 3083 3085 3086 3087 3087 3086 3086 3086 3084 3083 3082 3080 3078 3075 3071 3067 3061 3056
3086 3085 3088 3090 3091 3094 3094 3095 3096 3096 3097 3095 3092 3081 3079 3078 3076 3072 3071 3071 3071 3071 3071 3072 3074 3076 3078 3080 3081 3081 3082 3081 3082 3081 3080 3079 3078 3077 3074 3072 3068 3064 3059 3054
3078 3080 3083 3085 3087 3090 3089 3091 3092 3092 3094 3092 3088 3088 3075 3073 3073 3071 3070 3068 3068 3067 3066 3067 3068 3071 3073 3073 3075 3075 3075 3076 3077 3076 3076 3075 3074 3073 3071 3069 3066 3062 3058 3052
3072 3075 3078 3078 3081 3084 3086 3088 3090 3090 3090 3091 3084 3085 3068 3071 3070 3070 3069 3067 3066 3065 3064 3065 3066 3068 3069 3070 3070 3071 3071 3071 3072 3072 3071 3071 3070 3070 3068 3066 3063 3060 3055 3050
3067 3068 3072 3075 3076 3079 3081 3086 3090 3090 3088 3081 3077 3078 3064 3066 3066 3066 3066 3065 3064 3064 3063 3063 3063 3064 3066 3067 3067 3067 3067 3067 3067 3067 3067 3067 3067 3067 3065 3063 3060 3057 3054 3049
3061 3065 3065 3068 3070 3074 3077 3082 3082 3079 3078 3074 3075 3067 3061 3063 3063 3062 3062 3062 3061 3061 3060 3060 3062 3062 3063 3063 3062 3063 3063 3062 3062 3062 3062 3063 3063 3063 3062 3060 3058 3055 3052 3048
3055 3058 3057 3059 3063 3069 3070 3073 3077 3077 3076 3076 3067 3062 3060 3057 3055 3057 3058 3059 3059 3059 3060 3060 3060 3059 3060 3060 3059 3059 3058 3058 3057 3057 3057 3058 3059 3059 3059 3057 3055 3053 3050 3046
3049 3050 3052 3054 3058 3061 3065 3067 3073 3075 3074 3067 3057 3058 3055 3054 3054 3055 3055 3056 3055 3057 3058 3059 3058 3058 3057 3056 3056 3055 3055 3054 3053 3052 3052 3052 3053 3055 3055 3054 3052 3050 3047 3044
3045 3046 3049 3050 3048 3052 3056 3058 3063 3065 3064 3059 3052 3049 3051 3050 3050 3052 3053 3052 3053 3053 3054 3054 3055 3055 3055 3054 3053 3051 3050 3050 3048 3049 3048 3048 3048 3049 3051 3050 3049 3047 3045 3042
3035 3040 3042 3044 3045 3045 3046 3050 3054 3055 3055 3052 3051 3042 3046 3049 3050 3051 3050 3051 3051 3052 3051 3050 3051 3051 3050 3049 3047 3046 3046 3045 3044 3043 3044 3044 3044 3045 3046 3046 3046 3044 3042 3039
3026 3032 3038 3039 3040 3037 3035 3040 3045 3046 3047 3041 3046 3037 3041 3043 3046 3047 3048 3048 3048 3047 3047 3048 3046 3046 3046 3045 3044 3042 3040 3040 3039 3038 3038 3039 3040 3040 3041 3042 3042 3042 3040 3037
3022 3025 3026 3024 3025 3026 3028 3031 3035 3038 3036 3034 3024 3032 3038 3040 3041 3043 3042 3042 3042 3041 3042 3042 3042 3040 3038 3038 3038 3037 3036 3034 3034 3033 3033 3034 3035 3036 3037 3038 3039 3039 3037 3035
3018 3020 3022 3024 3024 3025 3025 3027 3027 3025 3027 3026 3026 3024 3029 3033 3034 3034 3035 3035 3033 3035 3033 3033 3033 3032 3031 3030 3030 3030 3029 3029 3029 3028 3028 3029 3030 3031 3033 3034 3036 3036 3034 3032
3010 3012 3015 3016 3019 3021 3018 3019 3021 3021 3022 3019 3019 3003 3022 3025 3027 3026 3027 3025 3024 3026 3023 3021 3019 3018 3020 3021 3021 3020 3020 3021 3021 3022 3023 3023 3024 3027 3029 3030 3033 3032 3031 3030
3003 3007 3012 3011 3014 3016 3005 3003 3010 3010 3010 3014 3006 3002 3013 3013 3014 3016 3016 3015 3012 3011 3013 3012 3010 3010 3010 3011 3012 3011 3012 3013 3015 3016 3016 3017 3019 3022 3024 3027 3029 3028 3028 3027
2996 3002 3007 3009 3011 3005 2992 2993 2998 2998 2998 2997 2997 2997 3000 3000 3002 3003 3007 3004 3001 3001 3001 3002 3001 2999 3001 3003 3003 3002 3004 3006 3007 3008 3009 3011 3014 3016 3019 3022 3024 3025 3024 3023
2990 2996 3000 3002 3001 2991 2984 2986 2988 2990 2991 2991 2987 2989 2994 2994 2995 2996 2997 2995 2996 2994 2993 2992 2992 2991 2992 2993 2994 2997 2998 2999 3000 3001 3003 3006 3008 3012 3013 3016 3019 3020 3020 3020
2983 2988 2994 2996 2995 2988 2980 2980 2983 2985 2985 2985 2983 2981 2985 2987 2989 2991 2991 2993 2992 2993 2992 2992 2988 2987 2987 2989 2989 2991 2992 2992 2993 2995 2998 3000 3002 3005 3007 3010 3013 3015 3015 3016
2972 2978 2980 2988 2987 2976 2974 2976 2978 2983 2982 2980 2982 2982 2982 2983 2989 2992 2989 2990 2989 2988 2991 2988 2988 2988 2985 2985 2987 2987 2989 2990 2989 2989 2990 2991 2992 2995 2998 3002 3007 3009 3010 3012
2959 2968 2973 2982 2982 2972 2966 2970 2972 2974 2974 2976 2977 2980 2979 2983 2984 2987 2987 2988 2987 2984 2987 2987 2989 2985 2986 2984 2982 2983 2984 2986 2987 2984 2983 2983 2984 2987 2992 2996 3001 3004 3006 3006
2953 2952 2957 2963 2957 2958 2959 2964 2965 2969 2973 2973 2975 2977 2976 2977 2981 2983 2980 2979 2981 2982 2980 2982 2983 2982 2981 2981 2981 2979 2979 2979 2981 2979 2978 2978 2978 2981 2986 2990 2995 2999 3000 3002
2941 2946 2950 2953 2949 2953 2956 2958 2959 2964 2967 2969 2969 2970 2970 2973 2974 2974 2975 2975 2975 2974 2973 2973 2978 2977 2976 2976 2973 2972 2972 2972 2974 2975 2974 2973 2973 2976 2980 2985 2991 2994 2996 2997
2936 2938 2938 2939 2941 2945 2947 2950 2952 2955 2957 2961 2962 2962 2963 2964 2967 2966 2966 2966 2967 2967 2966 2967 2967 2968 2969 2970 2968 2968 2966 2966 2967 2968 2968 2969 2970 2971 2975 2980 2986 2989 2991 2993
2923 2927 2927 2928 2936 2937 2939 2940 2943 2945 2948 2951 2953 2954 2954 2956 2956 2959 2958 2959 2957 2960 2959 2958 2960 2960 2960 2961 2962 2963 2962 2960 2961 2962 2961 2963 2965 2967 2970 2975 2980 2984 2987 2989